DW4933 Weather Reports


Display with metric or nautical units.
time (UTC)temp
F
wind
direction
speed
MPH
gust
MPH
rain 1hr
in
rain 24hr
in
rain mn
in
humidity
%
barometer
mb
20260504081600 40 262 0.0 0.0 0.00 0.00 0.00 77 1011.5
20260504044532 44 262 0.0 0.0 0.00 0.00 0.00 72 1011.5
20260504043026 45 262 0.0 0.0 0.00 0.00 0.00 70 1011.6
20260504041520 46 262 0.0 0.0 0.00 0.00 0.00 69 1011.6
20260504040017 47 262 0.0 0.0 0.00 0.00 0.00 67 1011.5
20260504034516 47 262 0.0 0.0 0.00 0.00 0.00 65 1011.6
20260504033016 48 262 0.0 0.0 0.00 0.00 0.00 64 1011.8
20260504031515 49 262 0.0 0.0 0.00 0.00 0.00 61 1011.7
20260504030015 50 262 0.0 0.0 0.00 0.00 0.00 59 1011.7
20260504024513 50 262 0.0 0.0 0.00 0.00 0.00 56 1011.8
20260504023013 50 262 0.0 0.0 0.00 0.00 0.00 55 1011.9
20260504021512 51 262 0.0 0.0 0.00 0.00 0.00 54 1012.0
20260504020011 50 262 0.0 0.0 0.00 0.00 0.00 52 1011.9
20260504014515 51 262 0.0 0.0 0.00 0.00 0.00 52 1011.8
20260504013014 52 262 0.0 0.0 0.00 0.00 0.00 49 1011.7
20260504011510 53 262 0.0 0.0 0.00 0.00 0.00 45 1011.6
20260504010010 53 262 0.0 0.0 0.00 0.00 0.00 44 1011.4
20260504004509 54 265 0.0 0.0 0.00 0.00 0.00 43 1011.3
20260504003008 54 262 0.0 0.0 0.00 0.00 0.00 44 1011.1
20260504001508 54 273 0.0 0.0 0.00 0.00 0.00 44 1010.9
20260504000018 53 274 0.0 0.0 0.00 0.00 0.00 47 1010.7
20260503234507 55 274 0.0 0.0 0.00 0.00 0.00 43 1010.7
20260503233006 55 245 0.0 0.0 0.00 0.00 0.00 40 1010.6
20260503231506 55 269 0.0 0.0 0.00 0.00 0.00 39 1010.6
20260503230006 55 250 0.0 0.0 0.00 0.00 0.00 40 1010.6
20260503224505 56 90 0.0 0.0 0.00 0.00 0.00 39 1010.7
20260503223005 57 277 0.0 0.0 0.00 0.00 0.00 39 1010.7
20260503221501 58 288 0.0 0.0 0.00 0.00 0.00 38 1010.9
20260503220106 57 271 0.0 0.0 0.00 0.00 0.00 39 1011.0
20260503214559 57 248 0.0 0.0 0.00 0.00 0.00 38 1011.1
20260503213057 57 278 0.0 0.0 0.00 0.00 0.00 40 1011.2
20260503211556 56 288 0.0 0.0 0.00 0.00 0.00 40 1011.2
20260503210058 55 108 0.0 0.0 0.00 0.00 0.00 41 1011.4
20260503204607 55 124 0.0 0.0 0.00 0.00 0.00 39 1011.2
20260503203100 56 115 0.0 1.0 0.00 0.00 0.00 37 1011.2
20260503201555 57 300 0.0 0.0 0.00 0.00 0.00 34 1011.1
20260503200053 57 307 0.0 0.0 0.00 0.00 0.00 34 1011.0
20260503194607 56 21 0.0 0.0 0.00 0.00 0.00 33 1011.3
20260503193050 57 248 0.0 0.0 0.00 0.00 0.00 32 1011.4
20260503191549 57 293 0.0 0.0 0.00 0.00 0.00 32 1011.5
20260503190057 58 39 0.0 0.0 0.00 0.00 0.00 31 1011.7
20260503184544 57 12 0.0 0.0 0.00 0.00 0.00 32 1011.8
20260503183050 56 264 0.0 0.0 0.00 0.00 0.00 32 1012.2
20260503181539 54 245 0.0 0.0 0.00 0.00 0.00 33 1012.4
20260503180035 55 114 0.0 0.0 0.00 0.00 0.00 34 1012.5
20260503174533 54 103 0.0 0.0 0.00 0.00 0.00 37 1012.7
20260503173046 54 246 0.0 0.0 0.00 0.00 0.00 34 1013.1
20260503171528 53 91 0.0 0.0 0.00 0.00 0.00 33 1013.1
20260503130110 45 113 0.0 0.0 0.00 0.00 0.00 53 1014.4